Weather in Narita

Japan     35°48′14″N   140°20′44″E
temp.,
°C
wind,
m/s
gust,
m/s
humid.,
%
clouds,
%
prec.,
mm/h
press.,
hPa
HPBL,
m
23 january, sun
sun2300:00+5n113079 0.0 102412
03:00+5nnw2332100 0.0 1023149
06:00+4n2436100 0.0 1023189
09:00+5nnw2440100 0.0 1023229
12:00+6n3448100 0.0 1021364
15:00+7n2369100 0.0 1019445
18:00+6nnw2375100 0.0 1019194
21:00+6nnw1280100 0.1 1018123
24 january, mon
mon2400:00+6n1284100 0.7 1015146
03:00+6nnw2473100 0.8 1014284
06:00+5n2569100 0.0 1013262
09:00+6nne3960100 0.0 1013396
12:00+8nne5737100 0.0 1012976
15:00+10nne57270 0.0 10121459
18:00+6ne59400 0.0 1015614
21:00+5nne48390 0.0 1017541
25 january, tue
tue2500:00+3nne26450 0.0 1019366
03:00+3nne26480 0.0 1020260
06:00+2nne135117 0.0 1021131
09:00+4nne2446100 0.0 1022296
12:00+6e1246100 0.0 1021722
15:00+7se1250100 0.0 10201158
18:00+7ese2361100 0.0 1020720
21:00+6ene2465100 0.0 1020634
26 january, wed
wed2600:00+6ne3576100 0.4 1019236
03:00+6n3687100 1.1 1017286
06:00+5nnw4886100 0.1 1017397
09:00+6nnw498393 0.1 1016422
12:00+6n4780100 0.0 1014498
15:00+8nne23736 0.0 1012478
18:00+6e11812 0.0 101225
21:00+6nne11870 0.0 101217
27 january, thu
thu2700:00+5nnw23884 0.0 101253
03:00+4nne26915 0.0 1013172
06:00+3nw11754 0.0 101525
09:00+6nnw61326100 0.0 10161180
12:00+8nw7102197 0.0 10151512
15:00+9nw710210 0.0 10151526
18:00+6nw410245 0.0 10181415
21:00+5nnw262945 0.0 1019515